Time,TemperatureF,DewpointF,PressureIn,WindDirection,WindDirectionDegrees,WindSpeedMPH,WindSpeedGustMPH,Humidity,HourlyPrecipIn,Conditions,Clouds,dailyrainin,SoftwareType,DateUTC
2014-01-22 00:01:00,5.5,1.2,30.26,WNW,289,0.0,25.0,82,0.00,,,0.00,Wunderground v.1.15,2014-01-22 05:01:00,
2014-01-22 00:03:00,5.4,1.1,30.27,WNW,289,0.0,25.0,82,0.00,,,0.00,Wunderground v.1.15,2014-01-22 05:03:00,
2014-01-22 00:05:00,5.3,1.3,30.26,WNW,289,0.0,25.0,83,0.00,,,0.00,Wunderground v.1.15,2014-01-22 05:05:00,
2014-01-22 00:09:00,5.2,1.2,30.27,WNW,289,0.0,25.0,83,0.00,,,0.00,Wunderground v.1.15,2014-01-22 05:09:00,
2014-01-22 00:11:00,5.2,1.2,30.27,WNW,289,0.0,25.0,83,0.00,,,0.00,Wunderground v.1.15,2014-01-22 05:11:00,
2014-01-22 00:16:00,5.1,1.3,30.27,WNW,289,0.0,25.0,84,0.00,,,0.00,Wunderground v.1.15,2014-01-22 05:16:00,
2014-01-22 00:19:00,5.2,1.4,30.27,WNW,289,0.0,25.0,84,0.00,,,0.00,Wunderground v.1.15,2014-01-22 05:19:00,
2014-01-22 00:21:00,5.4,1.9,30.27,WNW,289,0.0,25.0,85,0.00,,,0.00,Wunderground v.1.15,2014-01-22 05:21:00,
2014-01-22 00:23:00,5.4,1.6,30.27,WNW,289,0.0,25.0,84,0.00,,,0.00,Wunderground v.1.15,2014-01-22 05:23:00,
2014-01-22 00:25:00,5.5,1.7,30.27,WNW,289,0.0,25.0,84,0.00,,,0.00,Wunderground v.1.15,2014-01-22 05:25:00,
2014-01-22 00:31:00,5.4,1.6,30.27,WNW,289,0.0,25.0,84,0.00,,,0.00,Wunderground v.1.15,2014-01-22 05:31:00,
2014-01-22 00:35:00,5.3,1.5,30.27,WNW,289,0.0,25.0,84,0.00,,,0.00,Wunderground v.1.15,2014-01-22 05:35:00,
2014-01-22 00:36:00,5.4,1.9,30.27,WNW,289,0.0,25.0,85,0.00,,,0.00,Wunderground v.1.15,2014-01-22 05:36:00,
2014-01-22 00:39:00,5.4,1.9,30.27,WNW,289,0.0,25.0,85,0.00,,,0.00,Wunderground v.1.15,2014-01-22 05:39:00,
2014-01-22 00:43:00,5.3,1.5,30.27,WNW,289,0.0,25.0,84,0.00,,,0.00,Wunderground v.1.15,2014-01-22 05:43:00,
2014-01-22 00:45:00,5.3,1.5,30.27,WNW,289,0.0,25.0,84,0.00,,,0.00,Wunderground v.1.15,2014-01-22 05:45:00,
2014-01-22 00:47:00,5.1,1.3,30.27,WNW,289,0.0,25.0,84,0.00,,,0.00,Wunderground v.1.15,2014-01-22 05:47:00,
2014-01-22 00:49:00,5.1,1.3,30.27,WNW,289,0.0,25.0,84,0.00,,,0.00,Wunderground v.1.15,2014-01-22 05:49:00,
2014-01-22 00:53:00,5.0,1.2,30.27,WNW,287,1.0,1.0,84,0.00,,,0.00,Wunderground v.1.15,2014-01-22 05:53:00,
2014-01-22 00:56:00,4.8,1.0,30.27,WNW,284,1.0,25.0,84,0.00,,,0.00,Wunderground v.1.15,2014-01-22 05:56:00,
2014-01-22 00:59:00,4.7,0.9,30.27,WNW,284,1.0,25.0,84,0.00,,,0.00,Wunderground v.1.15,2014-01-22 05:59:00,
2014-01-22 01:01:00,4.6,0.8,30.27,WNW,283,1.0,25.0,84,0.00,,,0.00,Wunderground v.1.15,2014-01-22 06:01:00,
2014-01-22 01:03:00,4.7,1.2,30.28,WNW,283,1.0,25.0,85,0.00,,,0.00,Wunderground v.1.15,2014-01-22 06:03:00,
2014-01-22 01:05:00,4.8,1.3,30.27,WSW,255,1.0,25.0,85,0.00,,,0.00,Wunderground v.1.15,2014-01-22 06:05:00,
2014-01-22 01:06:00,5.0,1.5,30.27,WSW,251,2.0,25.0,85,0.00,,,0.00,Wunderground v.1.15,2014-01-22 06:06:00,
2014-01-22 01:11:00,5.2,1.7,30.27,WSW,245,2.0,25.0,85,0.00,,,0.00,Wunderground v.1.15,2014-01-22 06:11:00,
2014-01-22 01:13:00,5.2,1.7,30.28,WSW,245,1.0,1.0,85,0.00,,,0.00,Wunderground v.1.15,2014-01-22 06:13:00,
2014-01-22 01:15:00,5.2,1.7,30.28,WSW,245,1.0,25.0,85,0.00,,,0.00,Wunderground v.1.15,2014-01-22 06:15:00,
2014-01-22 01:16:00,5.2,1.7,30.28,WSW,245,0.0,25.0,85,0.00,,,0.00,Wunderground v.1.15,2014-01-22 06:16:00,
2014-01-22 01:21:00,5.2,1.7,30.27,WSW,245,0.0,25.0,85,0.00,,,0.00,Wunderground v.1.15,2014-01-22 06:21:00,
2014-01-22 01:23:00,5.1,1.6,30.27,WSW,245,0.0,25.0,85,0.00,,,0.00,Wunderground v.1.15,2014-01-22 06:23:00,
2014-01-22 01:25:00,5.1,1.6,30.27,WSW,245,0.0,25.0,85,0.00,,,0.00,Wunderground v.1.15,2014-01-22 06:25:00,
2014-01-22 01:27:00,5.1,1.6,30.27,WSW,245,0.0,25.0,85,0.00,,,0.00,Wunderground v.1.15,2014-01-22 06:27:00,
2014-01-22 01:28:00,4.9,1.1,30.27,WSW,245,0.0,25.0,84,0.00,,,0.00,Wunderground v.1.15,2014-01-22 06:28:00,
2014-01-22 01:35:00,4.4,0.6,30.28,WSW,245,0.0,25.0,84,0.00,,,0.00,Wunderground v.1.15,2014-01-22 06:35:00,
2014-01-22 01:37:00,4.1,0.1,30.28,WSW,245,0.0,25.0,83,0.00,,,0.00,Wunderground v.1.15,2014-01-22 06:37:00,
2014-01-22 01:38:00,4.0,0.0,30.28,WSW,245,0.0,25.0,83,0.00,,,0.00,Wunderground v.1.15,2014-01-22 06:38:00,
2014-01-22 01:41:00,3.7,-0.1,30.27,WSW,245,0.0,25.0,84,0.00,,,0.00,Wunderground v.1.15,2014-01-22 06:41:00,
2014-01-22 01:43:00,3.6,-0.2,30.27,WSW,245,0.0,25.0,84,0.00,,,0.00,Wunderground v.1.15,2014-01-22 06:43:00,
2014-01-22 01:45:00,3.6,-0.2,30.28,West,260,0.0,25.0,84,0.00,,,0.00,Wunderground v.1.15,2014-01-22 06:45:00,
2014-01-22 01:48:00,4.0,0.7,30.28,West,280,1.0,25.0,86,0.00,,,0.00,Wunderground v.1.15,2014-01-22 06:48:00,
2014-01-22 01:51:00,4.0,0.7,30.28,West,280,1.0,25.0,86,0.00,,,0.00,Wunderground v.1.15,2014-01-22 06:51:00,
2014-01-22 01:53:00,3.9,0.4,30.28,West,280,1.0,1.0,85,0.00,,,0.00,Wunderground v.1.15,2014-01-22 06:53:00,
2014-01-22 01:55:00,3.8,0.3,30.28,West,280,1.0,25.0,85,0.00,,,0.00,Wunderground v.1.15,2014-01-22 06:55:00,
2014-01-22 01:57:00,3.7,0.2,30.28,West,280,0.0,25.0,85,0.00,,,0.00,Wunderground v.1.15,2014-01-22 06:57:00,
2014-01-22 01:59:00,3.7,0.2,30.28,West,280,0.0,25.0,85,0.00,,,0.00,Wunderground v.1.15,2014-01-22 06:59:00,
2014-01-22 02:01:00,3.6,0.1,30.28,West,280,0.0,25.0,85,0.00,,,0.00,Wunderground v.1.15,2014-01-22 07:01:00,
2014-01-22 02:03:00,3.5,0.0,30.28,West,280,1.0,25.0,85,0.00,,,0.00,Wunderground v.1.15,2014-01-22 07:03:00,
2014-01-22 02:05:00,3.2,-0.3,30.28,West,280,1.0,25.0,85,0.00,,,0.00,Wunderground v.1.15,2014-01-22 07:05:00,
2014-01-22 02:07:00,3.0,-0.5,30.28,West,280,1.0,25.0,85,0.00,,,0.00,Wunderground v.1.15,2014-01-22 07:07:00,
2014-01-22 02:08:00,2.8,-0.7,30.28,West,280,1.0,25.0,85,0.00,,,0.00,Wunderground v.1.15,2014-01-22 07:08:00,
2014-01-22 02:11:00,2.7,-0.8,30.28,West,280,1.0,25.0,85,0.00,,,0.00,Wunderground v.1.15,2014-01-22 07:11:00,
2014-01-22 02:13:00,2.7,-0.5,30.28,West,280,0.0,25.0,86,0.00,,,0.00,Wunderground v.1.15,2014-01-22 07:13:00,
2014-01-22 02:18:00,2.8,-0.4,30.27,West,280,0.0,25.0,86,0.00,,,0.00,Wunderground v.1.15,2014-01-22 07:18:00,
2014-01-22 02:20:00,3.0,0.0,30.27,West,275,0.0,25.0,87,0.00,,,0.00,Wunderground v.1.15,2014-01-22 07:20:00,
2014-01-22 02:23:00,3.2,0.2,30.27,WSW,248,1.0,25.0,87,0.00,,,0.00,Wunderground v.1.15,2014-01-22 07:23:00,
2014-01-22 02:25:00,3.5,0.5,30.27,SW,233,1.0,25.0,87,0.00,,,0.00,Wunderground v.1.15,2014-01-22 07:25:00,
2014-01-22 02:27:00,3.7,0.7,30.27,SW,235,2.0,25.0,87,0.00,,,0.00,Wunderground v.1.15,2014-01-22 07:27:00,
2014-01-22 02:28:00,3.9,0.9,30.27,WSW,238,2.0,25.0,87,0.00,,,0.00,Wunderground v.1.15,2014-01-22 07:28:00,
2014-01-22 02:33:00,4.1,1.1,30.28,WSW,246,2.0,2.0,87,0.00,,,0.00,Wunderground v.1.15,2014-01-22 07:33:00,
2014-01-22 02:35:00,4.0,1.0,30.28,WSW,246,1.0,25.0,87,0.00,,,0.00,Wunderground v.1.15,2014-01-22 07:35:00,
2014-01-22 02:39:00,3.8,0.5,30.28,WSW,247,1.0,25.0,86,0.00,,,0.00,Wunderground v.1.15,2014-01-22 07:39:00,
2014-01-22 02:40:00,3.7,0.4,30.28,WSW,244,0.0,25.0,86,0.00,,,0.00,Wunderground v.1.15,2014-01-22 07:40:00,
2014-01-22 02:42:00,3.7,0.4,30.28,WSW,240,0.0,25.0,86,0.00,,,0.00,Wunderground v.1.15,2014-01-22 07:42:00,
2014-01-22 02:47:00,3.8,0.8,30.28,SW,235,1.0,25.0,87,0.00,,,0.00,Wunderground v.1.15,2014-01-22 07:47:00,
2014-01-22 02:49:00,3.9,0.9,30.28,SW,233,2.0,25.0,87,0.00,,,0.00,Wunderground v.1.15,2014-01-22 07:49:00,
2014-01-22 02:53:00,4.0,0.7,30.28,SW,235,2.0,2.0,86,0.00,,,0.00,Wunderground v.1.15,2014-01-22 07:53:00,
2014-01-22 02:55:00,4.0,0.7,30.27,SW,235,1.0,25.0,86,0.00,,,0.00,Wunderground v.1.15,2014-01-22 07:55:00,
2014-01-22 02:57:00,3.9,0.6,30.27,SW,235,1.0,25.0,86,0.00,,,0.00,Wunderground v.1.15,2014-01-22 07:57:00,
2014-01-22 03:01:00,3.9,0.6,30.27,SW,235,0.0,25.0,86,0.00,,,0.00,Wunderground v.1.15,2014-01-22 08:01:00,
2014-01-22 03:03:00,3.9,0.6,30.27,SW,235,0.0,25.0,86,0.00,,,0.00,Wunderground v.1.15,2014-01-22 08:03:00,
2014-01-22 03:05:00,3.8,0.5,30.27,SW,235,0.0,25.0,86,0.00,,,0.00,Wunderground v.1.15,2014-01-22 08:05:00,
2014-01-22 03:07:00,3.7,0.4,30.26,SW,235,0.0,25.0,86,0.00,,,0.00,Wunderground v.1.15,2014-01-22 08:07:00,
2014-01-22 03:10:00,3.5,0.3,30.26,SW,235,0.0,25.0,86,0.00,,,0.00,Wunderground v.1.15,2014-01-22 08:10:00,
2014-01-22 03:13:00,3.4,0.2,30.26,SW,235,0.0,25.0,86,0.00,,,0.00,Wunderground v.1.15,2014-01-22 08:13:00,
2014-01-22 03:17:00,3.3,0.1,30.26,SW,235,0.0,25.0,86,0.00,,,0.00,Wunderground v.1.15,2014-01-22 08:17:00,
2014-01-22 03:19:00,3.3,0.1,30.26,SW,235,0.0,25.0,86,0.00,,,0.00,Wunderground v.1.15,2014-01-22 08:19:00,
2014-01-22 03:20:00,3.3,0.1,30.26,SW,235,0.0,25.0,86,0.00,,,0.00,Wunderground v.1.15,2014-01-22 08:20:00,
2014-01-22 03:25:00,3.3,0.1,30.26,SW,235,0.0,25.0,86,0.00,,,0.00,Wunderground v.1.15,2014-01-22 08:25:00,
2014-01-22 03:27:00,3.3,0.1,30.26,SW,235,0.0,25.0,86,0.00,,,0.00,Wunderground v.1.15,2014-01-22 08:27:00,
2014-01-22 03:29:00,3.2,-0.3,30.25,SW,235,0.0,25.0,85,0.00,,,0.00,Wunderground v.1.15,2014-01-22 08:29:00,
2014-01-22 03:32:00,2.7,-1.0,30.25,SW,235,0.0,25.0,84,0.00,,,0.00,Wunderground v.1.15,2014-01-22 08:32:00,
2014-01-22 03:35:00,2.4,-1.3,30.25,SW,235,0.0,25.0,84,0.00,,,0.00,Wunderground v.1.15,2014-01-22 08:35:00,
2014-01-22 03:39:00,2.0,-1.7,30.25,SW,235,0.0,25.0,84,0.00,,,0.00,Wunderground v.1.15,2014-01-22 08:39:00,
2014-01-22 03:40:00,1.9,-1.6,30.25,SW,235,0.0,25.0,85,0.00,,,0.00,Wunderground v.1.15,2014-01-22 08:40:00,
2014-01-22 03:42:00,1.8,-1.7,30.25,SW,235,0.0,25.0,85,0.00,,,0.00,Wunderground v.1.15,2014-01-22 08:42:00,
2014-01-22 03:47:00,1.5,-2.0,30.25,SW,235,0.0,25.0,85,0.00,,,0.00,Wunderground v.1.15,2014-01-22 08:47:00,
2014-01-22 03:53:00,1.6,-1.6,30.25,SW,235,1.0,1.0,86,0.00,,,0.00,Wunderground v.1.15,2014-01-22 08:53:00,
2014-01-22 03:55:00,1.5,-1.7,30.25,SW,235,1.0,25.0,86,0.00,,,0.00,Wunderground v.1.15,2014-01-22 08:55:00,
2014-01-22 03:59:00,1.3,-1.9,30.25,SW,235,0.0,25.0,86,0.00,,,0.00,Wunderground v.1.15,2014-01-22 08:59:00,
2014-01-22 04:01:00,1.2,-2.0,30.25,SW,235,0.0,25.0,86,0.00,,,0.00,Wunderground v.1.15,2014-01-22 09:01:00,
2014-01-22 04:07:00,0.8,-2.7,30.24,SW,235,0.0,25.0,85,0.00,,,0.00,Wunderground v.1.15,2014-01-22 09:07:00,
2014-01-22 04:11:00,0.5,-2.9,30.24,SW,235,0.0,25.0,85,0.00,,,0.00,Wunderground v.1.15,2014-01-22 09:11:00,
2014-01-22 04:12:00,0.4,-3.0,30.24,SW,235,0.0,25.0,85,0.00,,,0.00,Wunderground v.1.15,2014-01-22 09:12:00,
2014-01-22 04:17:00,0.1,-3.3,30.24,SW,235,0.0,25.0,85,0.00,,,0.00,Wunderground v.1.15,2014-01-22 09:17:00,
2014-01-22 04:19:00,0.1,-3.3,30.24,SW,235,0.0,25.0,85,0.00,,,0.00,Wunderground v.1.15,2014-01-22 09:19:00,
2014-01-22 04:21:00,0.0,-3.2,30.24,SW,235,1.0,25.0,86,0.00,,,0.00,Wunderground v.1.15,2014-01-22 09:21:00,
2014-01-22 04:22:00,0.0,-3.2,30.24,SW,235,1.0,1.0,86,0.00,,,0.00,Wunderground v.1.15,2014-01-22 09:22:00,
2014-01-22 04:25:00,0.0,-3.2,30.23,SW,235,1.0,25.0,86,0.00,,,0.00,Wunderground v.1.15,2014-01-22 09:25:00,
2014-01-22 04:27:00,0.0,-3.2,30.23,SW,235,1.0,25.0,86,0.00,,,0.00,Wunderground v.1.15,2014-01-22 09:27:00,
2014-01-22 04:32:00,-0.2,-3.6,30.23,SW,235,1.0,25.0,85,0.00,,,0.00,Wunderground v.1.15,2014-01-22 09:32:00,
2014-01-22 04:37:00,-0.3,-3.5,30.23,SW,235,1.0,25.0,86,0.00,,,0.00,Wunderground v.1.15,2014-01-22 09:37:00,
2014-01-22 04:39:00,-0.3,-3.5,30.23,SW,235,1.0,25.0,86,0.00,,,0.00,Wunderground v.1.15,2014-01-22 09:39:00,
2014-01-22 04:41:00,-0.4,-3.6,30.23,SW,234,1.0,25.0,86,0.00,,,0.00,Wunderground v.1.15,2014-01-22 09:41:00,
2014-01-22 04:44:00,-0.5,-3.7,30.22,SW,234,1.0,25.0,86,0.00,,,0.00,Wunderground v.1.15,2014-01-22 09:44:00,
2014-01-22 04:47:00,-0.5,-3.7,30.22,SW,234,1.0,25.0,86,0.00,,,0.00,Wunderground v.1.15,2014-01-22 09:47:00,
2014-01-22 04:53:00,-0.8,-4.2,30.21,South,181,2.0,2.0,85,0.00,,,0.00,Wunderground v.1.15,2014-01-22 09:53:00,
2014-01-22 04:54:00,-0.8,-4.2,30.21,South,181,2.0,25.0,85,0.00,,,0.00,Wunderground v.1.15,2014-01-22 09:54:00,
2014-01-22 04:59:00,-0.5,-3.7,30.21,South,177,1.0,25.0,86,0.00,,,0.00,Wunderground v.1.15,2014-01-22 09:59:00,
2014-01-22 05:01:00,-0.2,-3.1,30.21,South,173,1.0,25.0,87,0.00,,,0.00,Wunderground v.1.15,2014-01-22 10:01:00,
2014-01-22 05:03:00,-0.1,-3.3,30.21,South,173,1.0,25.0,86,0.00,,,0.00,Wunderground v.1.15,2014-01-22 10:03:00,
2014-01-22 05:04:00,-0.2,-3.4,30.21,South,172,1.0,25.0,86,0.00,,,0.00,Wunderground v.1.15,2014-01-22 10:04:00,
2014-01-22 05:11:00,-0.1,-3.3,30.20,SSE,154,2.0,25.0,86,0.00,,,0.00,Wunderground v.1.15,2014-01-22 10:11:00,
2014-01-22 05:13:00,-0.1,-3.3,30.20,SSE,153,2.0,25.0,86,0.00,,,0.00,Wunderground v.1.15,2014-01-22 10:13:00,
2014-01-22 05:14:00,-0.1,-3.3,30.20,SSE,153,3.0,25.0,86,0.00,,,0.00,Wunderground v.1.15,2014-01-22 10:14:00,
2014-01-22 05:19:00,-0.2,-3.4,30.21,SSE,153,3.0,25.0,86,0.00,,,0.00,Wunderground v.1.15,2014-01-22 10:19:00,
2014-01-22 05:21:00,-0.3,-3.5,30.21,SSE,153,2.0,25.0,86,0.00,,,0.00,Wunderground v.1.15,2014-01-22 10:21:00,
2014-01-22 05:23:00,-0.3,-3.5,30.20,SSE,153,2.0,25.0,86,0.00,,,0.00,Wunderground v.1.15,2014-01-22 10:23:00,
2014-01-22 05:24:00,-0.3,-3.5,30.20,SSE,153,2.0,25.0,86,0.00,,,0.00,Wunderground v.1.15,2014-01-22 10:24:00,
2014-01-22 05:27:00,-0.5,-3.7,30.20,SSE,153,2.0,25.0,86,0.00,,,0.00,Wunderground v.1.15,2014-01-22 10:27:00,
2014-01-22 05:29:00,-0.5,-3.7,30.20,SSE,153,2.0,25.0,86,0.00,,,0.00,Wunderground v.1.15,2014-01-22 10:29:00,
2014-01-22 05:31:00,-0.5,-3.7,30.20,SSE,153,2.0,25.0,86,0.00,,,0.00,Wunderground v.1.15,2014-01-22 10:31:00,
2014-01-22 05:33:00,-0.4,-3.6,30.20,SSE,153,2.0,2.0,86,0.00,,,0.00,Wunderground v.1.15,2014-01-22 10:33:00,
2014-01-22 05:39:00,-0.2,-3.4,30.20,SSE,153,1.0,25.0,86,0.00,,,0.00,Wunderground v.1.15,2014-01-22 10:39:00,
2014-01-22 05:41:00,-0.1,-3.3,30.21,SSE,153,1.0,25.0,86,0.00,,,0.00,Wunderground v.1.15,2014-01-22 10:41:00,
2014-01-22 05:43:00,-0.1,-3.3,30.20,SSE,153,1.0,25.0,86,0.00,,,0.00,Wunderground v.1.15,2014-01-22 10:43:00,
2014-01-22 05:44:00,-0.1,-3.3,30.21,SSE,153,1.0,25.0,86,0.00,,,0.00,Wunderground v.1.15,2014-01-22 10:44:00,
2014-01-22 05:46:00,-0.1,-3.3,30.21,SSE,153,1.0,25.0,86,0.00,,,0.00,Wunderground v.1.15,2014-01-22 10:46:00,
2014-01-22 05:53:00,-0.2,-3.4,30.21,SSE,153,0.0,25.0,86,0.00,,,0.00,Wunderground v.1.15,2014-01-22 10:53:00,
2014-01-22 05:54:00,-0.2,-3.4,30.21,SSE,153,0.0,25.0,86,0.00,,,0.00,Wunderground v.1.15,2014-01-22 10:54:00,
2014-01-22 06:01:00,-0.3,-3.7,30.21,SSE,153,0.0,25.0,85,0.00,,,0.00,Wunderground v.1.15,2014-01-22 11:01:00,
2014-01-22 06:03:00,-0.3,-3.5,30.21,SSE,153,0.0,25.0,86,0.00,,,0.00,Wunderground v.1.15,2014-01-22 11:03:00,
2014-01-22 06:05:00,-0.4,-3.8,30.21,SSE,153,0.0,25.0,85,0.00,,,0.00,Wunderground v.1.15,2014-01-22 11:05:00,
2014-01-22 06:09:00,-0.5,-3.9,30.21,SSE,153,0.0,25.0,85,0.00,,,0.00,Wunderground v.1.15,2014-01-22 11:09:00,
2014-01-22 06:11:00,-0.6,-4.0,30.21,SSE,153,0.0,25.0,85,0.00,,,0.00,Wunderground v.1.15,2014-01-22 11:11:00,
2014-01-22 06:12:00,-0.6,-4.0,30.21,SSE,153,0.0,0.0,85,0.00,,,0.00,Wunderground v.1.15,2014-01-22 11:12:00,
2014-01-22 06:17:00,-0.7,-4.1,30.21,SSE,153,0.0,0.0,85,0.00,,,0.00,Wunderground v.1.15,2014-01-22 11:17:00,
2014-01-22 06:19:00,-0.7,-4.1,30.21,SSE,153,0.0,0.0,85,0.00,,,0.00,Wunderground v.1.15,2014-01-22 11:19:00,
2014-01-22 06:22:00,-0.7,-4.1,30.21,SSE,153,0.0,0.0,85,0.00,,,0.00,Wunderground v.1.15,2014-01-22 11:22:00,
2014-01-22 06:25:00,-0.7,-4.1,30.21,SSE,153,0.0,1.0,85,0.00,,,0.00,Wunderground v.1.15,2014-01-22 11:25:00,
2014-01-22 06:27:00,-0.8,-4.2,30.21,SSE,153,0.0,2.0,85,0.00,,,0.00,Wunderground v.1.15,2014-01-22 11:27:00,
2014-01-22 06:29:00,-0.8,-4.2,30.21,SSE,153,0.0,2.0,85,0.00,,,0.00,Wunderground v.1.15,2014-01-22 11:29:00,
2014-01-22 06:31:00,-0.9,-4.3,30.21,SSE,153,1.0,2.0,85,0.00,,,0.00,Wunderground v.1.15,2014-01-22 11:31:00,
2014-01-22 06:32:00,-1.0,-4.4,30.20,SSE,153,1.0,2.0,85,0.00,,,0.00,Wunderground v.1.15,2014-01-22 11:32:00,
2014-01-22 06:35:00,-1.0,-4.4,30.20,SSE,153,1.0,3.0,85,0.00,,,0.00,Wunderground v.1.15,2014-01-22 11:35:00,
2014-01-22 06:37:00,-1.2,-4.6,30.20,SSE,153,1.0,3.0,85,0.00,,,0.00,Wunderground v.1.15,2014-01-22 11:37:00,
2014-01-22 06:39:00,-1.2,-4.6,30.20,SSE,153,1.0,3.0,85,0.00,,,0.00,Wunderground v.1.15,2014-01-22 11:39:00,
2014-01-22 06:41:00,-1.3,-4.7,30.20,SSE,153,1.0,3.0,85,0.00,,,0.00,Wunderground v.1.15,2014-01-22 11:41:00,
2014-01-22 06:42:00,-1.3,-4.7,30.21,SSE,153,1.0,3.0,85,0.00,,,0.00,Wunderground v.1.15,2014-01-22 11:42:00,
2014-01-22 06:44:00,-1.4,-4.8,30.20,SSE,153,1.0,3.0,85,0.00,,,0.00,Wunderground v.1.15,2014-01-22 11:44:00,
2014-01-22 06:49:00,-1.5,-4.9,30.20,SSE,153,1.0,3.0,85,0.00,,,0.00,Wunderground v.1.15,2014-01-22 11:49:00,
2014-01-22 06:51:00,-1.6,-5.0,30.20,SSE,153,1.0,3.0,85,0.00,,,0.00,Wunderground v.1.15,2014-01-22 11:51:00,
2014-01-22 06:54:00,-1.7,-5.1,30.20,SSE,153,2.0,3.0,85,0.00,,,0.00,Wunderground v.1.15,2014-01-22 11:54:00,
2014-01-22 06:57:00,-1.7,-5.1,30.20,SSE,153,2.0,3.0,85,0.00,,,0.00,Wunderground v.1.15,2014-01-22 11:57:00,
2014-01-22 07:01:00,-1.6,-5.0,30.20,SSE,153,3.0,4.0,85,0.00,,,0.00,Wunderground v.1.15,2014-01-22 12:01:00,
2014-01-22 07:04:00,-1.6,-5.0,30.20,SSE,149,3.0,3.0,85,0.00,,,0.00,Wunderground v.1.15,2014-01-22 12:04:00,
2014-01-22 07:07:00,-1.4,-4.8,30.20,SSE,147,3.0,3.0,85,0.00,,,0.00,Wunderground v.1.15,2014-01-22 12:07:00,
2014-01-22 07:11:00,-1.2,-4.4,30.20,SE,146,3.0,3.0,86,0.00,,,0.00,Wunderground v.1.15,2014-01-22 12:11:00,
2014-01-22 07:13:00,-1.1,-4.3,30.20,SE,146,3.0,3.0,86,0.00,,,0.00,Wunderground v.1.15,2014-01-22 12:13:00,
2014-01-22 07:14:00,-1.0,-4.2,30.20,SE,146,3.0,3.0,86,0.00,,,0.00,Wunderground v.1.15,2014-01-22 12:14:00,
2014-01-22 07:17:00,-0.9,-4.1,30.20,SE,146,3.0,3.0,86,0.00,,,0.00,Wunderground v.1.15,2014-01-22 12:17:00,
2014-01-22 07:19:00,-0.7,-3.9,30.20,SE,146,3.0,3.0,86,0.00,,,0.00,Wunderground v.1.15,2014-01-22 12:19:00,
2014-01-22 07:21:00,-0.6,-3.8,30.20,SE,146,2.0,3.0,86,0.00,,,0.00,Wunderground v.1.15,2014-01-22 12:21:00,
2014-01-22 07:24:00,-0.3,-3.5,30.20,SE,146,2.0,3.0,86,0.00,,,0.00,Wunderground v.1.15,2014-01-22 12:24:00,
2014-01-22 07:27:00,-0.2,-3.4,30.20,SE,146,2.0,3.0,86,0.00,,,0.00,Wunderground v.1.15,2014-01-22 12:27:00,
2014-01-22 07:31:00,0.0,-3.2,30.20,SE,143,2.0,3.0,86,0.00,,,0.00,Wunderground v.1.15,2014-01-22 12:31:00,
2014-01-22 07:33:00,0.1,-3.1,30.20,SE,143,3.0,3.0,86,0.00,,,0.00,Wunderground v.1.15,2014-01-22 12:33:00,
2014-01-22 07:34:00,0.2,-3.0,30.20,SE,143,3.0,3.0,86,0.00,,,0.00,Wunderground v.1.15,2014-01-22 12:34:00,
2014-01-22 07:37:00,0.3,-2.9,30.20,SE,143,3.0,3.0,86,0.00,,,0.00,Wunderground v.1.15,2014-01-22 12:37:00,
2014-01-22 07:41:00,0.4,-2.8,30.20,SE,143,2.0,3.0,86,0.00,,,0.00,Wunderground v.1.15,2014-01-22 12:41:00,
2014-01-22 07:43:00,0.4,-2.8,30.20,SE,143,2.0,2.0,86,0.00,,,0.00,Wunderground v.1.15,2014-01-22 12:43:00,
2014-01-22 07:44:00,0.5,-2.7,30.20,SE,143,2.0,3.0,86,0.00,,,0.00,Wunderground v.1.15,2014-01-22 12:44:00,
2014-01-22 07:47:00,0.6,-2.6,30.20,SE,143,2.0,3.0,86,0.00,,,0.00,Wunderground v.1.15,2014-01-22 12:47:00,
2014-01-22 07:49:00,0.6,-2.6,30.20,SE,143,2.0,3.0,86,0.00,,,0.00,Wunderground v.1.15,2014-01-22 12:49:00,
2014-01-22 07:51:00,0.7,-2.5,30.20,SE,143,2.0,3.0,86,0.00,,,0.00,Wunderground v.1.15,2014-01-22 12:51:00,
2014-01-22 07:54:00,0.9,-2.3,30.20,SE,143,2.0,3.0,86,0.00,,,0.00,Wunderground v.1.15,2014-01-22 12:54:00,
2014-01-22 08:01:00,1.1,-2.1,30.20,SE,143,3.0,3.0,86,0.00,,,0.00,Wunderground v.1.15,2014-01-22 13:01:00,
2014-01-22 08:03:00,1.3,-1.9,30.20,SE,143,3.0,3.0,86,0.00,,,0.00,Wunderground v.1.15,2014-01-22 13:03:00,
2014-01-22 08:04:00,1.4,-1.8,30.19,SE,143,3.0,3.0,86,0.00,,,0.00,Wunderground v.1.15,2014-01-22 13:04:00,
2014-01-22 08:09:00,1.7,-1.3,30.19,SE,138,3.0,5.0,87,0.00,,,0.00,Wunderground v.1.15,2014-01-22 13:09:00,
2014-01-22 08:11:00,1.8,-1.2,30.19,SE,139,4.0,5.0,87,0.00,,,0.00,Wunderground v.1.15,2014-01-22 13:11:00,
2014-01-22 08:13:00,2.0,-1.0,30.19,SE,137,4.0,4.0,87,0.00,,,0.00,Wunderground v.1.15,2014-01-22 13:13:00,
2014-01-22 08:15:00,2.1,-0.9,30.19,SE,139,4.0,4.0,87,0.00,,,0.00,Wunderground v.1.15,2014-01-22 13:15:00,
2014-01-22 08:16:00,2.2,-0.8,30.19,SE,138,4.0,4.0,87,0.00,,,0.00,Wunderground v.1.15,2014-01-22 13:16:00,
2014-01-22 08:21:00,2.4,-0.6,30.19,SE,137,4.0,4.0,87,0.00,,,0.00,Wunderground v.1.15,2014-01-22 13:21:00,
2014-01-22 08:23:00,2.5,-0.5,30.19,SE,137,4.0,5.0,87,0.00,,,0.00,Wunderground v.1.15,2014-01-22 13:23:00,
2014-01-22 08:29:00,2.8,-0.2,30.19,SE,141,4.0,5.0,87,0.00,,,0.00,Wunderground v.1.15,2014-01-22 13:29:00,
2014-01-22 08:31:00,3.0,0.0,30.19,SE,143,4.0,5.0,87,0.00,,,0.00,Wunderground v.1.15,2014-01-22 13:31:00,
2014-01-22 08:33:00,3.1,0.1,30.19,SE,143,3.0,3.0,87,0.00,,,0.00,Wunderground v.1.15,2014-01-22 13:33:00,
2014-01-22 08:35:00,3.2,0.2,30.19,SE,143,3.0,4.0,87,0.00,,,0.00,Wunderground v.1.15,2014-01-22 13:35:00,
2014-01-22 08:36:00,3.3,0.3,30.19,SE,143,4.0,4.0,87,0.00,,,0.00,Wunderground v.1.15,2014-01-22 13:36:00,
2014-01-22 08:39:00,3.5,0.5,30.19,SE,143,3.0,4.0,87,0.00,,,0.00,Wunderground v.1.15,2014-01-22 13:39:00,
2014-01-22 08:41:00,3.6,0.6,30.19,SE,143,3.0,4.0,87,0.00,,,0.00,Wunderground v.1.15,2014-01-22 13:41:00,
2014-01-22 08:43:00,3.7,0.7,30.19,SE,143,3.0,3.0,87,0.00,,,0.00,Wunderground v.1.15,2014-01-22 13:43:00,
2014-01-22 08:45:00,3.8,0.8,30.19,SE,143,3.0,3.0,87,0.00,,,0.00,Wunderground v.1.15,2014-01-22 13:45:00,
2014-01-22 08:46:00,3.9,0.9,30.19,SE,143,2.0,3.0,87,0.00,,,0.00,Wunderground v.1.15,2014-01-22 13:46:00,
2014-01-22 08:49:00,4.0,1.0,30.19,SE,143,2.0,3.0,87,0.00,,,0.00,Wunderground v.1.15,2014-01-22 13:49:00,
2014-01-22 08:51:00,4.1,1.1,30.19,SE,143,2.0,3.0,87,0.00,,,0.00,Wunderground v.1.15,2014-01-22 13:51:00,
2014-01-22 08:55:00,4.5,1.5,30.19,SE,143,2.0,4.0,87,0.00,,,0.00,Wunderground v.1.15,2014-01-22 13:55:00,
2014-01-22 08:59:00,4.8,2.0,30.19,SE,142,2.0,4.0,88,0.00,,,0.00,Wunderground v.1.15,2014-01-22 13:59:00,
2014-01-22 09:01:00,5.0,2.2,30.19,SE,142,2.0,4.0,88,0.00,,,0.00,Wunderground v.1.15,2014-01-22 14:01:00,
2014-01-22 09:05:00,5.4,2.6,30.18,SE,142,2.0,4.0,88,0.00,,,0.00,Wunderground v.1.15,2014-01-22 14:05:00,
2014-01-22 09:06:00,5.6,2.8,30.18,SE,142,3.0,4.0,88,0.00,,,0.00,Wunderground v.1.15,2014-01-22 14:06:00,
2014-01-22 09:11:00,5.9,3.1,30.18,SE,143,3.0,4.0,88,0.00,,,0.00,Wunderground v.1.15,2014-01-22 14:11:00,
2014-01-22 09:13:00,6.0,3.2,30.18,SE,141,3.0,5.0,88,0.00,,,0.00,Wunderground v.1.15,2014-01-22 14:13:00,
2014-01-22 09:15:00,6.3,3.5,30.19,SSE,156,4.0,8.0,88,0.00,,,0.00,Wunderground v.1.15,2014-01-22 14:15:00,
2014-01-22 09:18:00,6.8,4.0,30.18,SE,139,5.0,8.0,88,0.00,,,0.00,Wunderground v.1.15,2014-01-22 14:18:00,
2014-01-22 09:21:00,7.1,4.3,30.18,SSE,155,6.0,8.0,88,0.00,,,0.00,Wunderground v.1.15,2014-01-22 14:21:00,
2014-01-22 09:23:00,7.3,4.5,30.18,SSE,151,6.0,6.0,88,0.00,,,0.00,Wunderground v.1.15,2014-01-22 14:23:00,
2014-01-22 09:27:00,7.6,4.5,30.19,SSE,159,6.0,9.0,87,0.00,,,0.00,Wunderground v.1.15,2014-01-22 14:27:00,
2014-01-22 09:28:00,7.7,4.6,30.18,SSE,162,6.0,9.0,87,0.00,,,0.00,Wunderground v.1.15,2014-01-22 14:28:00,
2014-01-22 09:33:00,8.0,4.9,30.18,SE,145,6.0,8.0,87,0.00,,,0.00,Wunderground v.1.15,2014-01-22 14:33:00,
2014-01-22 09:35:00,8.1,5.0,30.18,SE,141,6.0,10.0,87,0.00,,,0.00,Wunderground v.1.15,2014-01-22 14:35:00,
2014-01-22 09:36:00,8.1,4.8,30.18,SSE,151,7.0,10.0,86,0.00,,,0.00,Wunderground v.1.15,2014-01-22 14:36:00,
2014-01-22 09:41:00,8.3,5.0,30.18,SE,135,7.0,10.0,86,0.00,,,0.00,Wunderground v.1.15,2014-01-22 14:41:00,
2014-01-22 09:43:00,8.4,5.1,30.18,SSE,163,7.0,7.0,86,0.00,,,0.00,Wunderground v.1.15,2014-01-22 14:43:00,
2014-01-22 09:45:00,8.5,5.2,30.18,SE,141,7.0,7.0,86,0.00,,,0.00,Wunderground v.1.15,2014-01-22 14:45:00,
2014-01-22 09:46:00,8.5,4.9,30.18,South,173,6.0,7.0,85,0.00,,,0.00,Wunderground v.1.15,2014-01-22 14:46:00,
2014-01-22 09:53:00,8.8,5.0,30.18,SE,134,7.0,10.0,84,0.00,,,0.00,Wunderground v.1.15,2014-01-22 14:53:00,
2014-01-22 09:55:00,8.9,5.1,30.18,SE,125,7.0,12.0,84,0.00,,,0.00,Wunderground v.1.15,2014-01-22 14:55:00,
2014-01-22 09:58:00,9.0,4.9,30.18,SSE,152,7.0,12.0,83,0.00,,,0.00,Wunderground v.1.15,2014-01-22 14:58:00,
2014-01-22 10:01:00,9.1,5.0,30.18,SE,143,7.0,12.0,83,0.00,,,0.00,Wunderground v.1.15,2014-01-22 15:01:00,
2014-01-22 10:03:00,9.2,5.1,30.18,SSE,159,7.0,7.0,83,0.00,,,0.00,Wunderground v.1.15,2014-01-22 15:03:00,
2014-01-22 10:08:00,9.3,4.9,30.18,SSE,160,6.0,8.0,82,0.00,,,0.00,Wunderground v.1.15,2014-01-22 15:08:00,
2014-01-22 10:11:00,9.3,4.9,30.18,SSE,147,6.0,11.0,82,0.00,,,0.00,Wunderground v.1.15,2014-01-22 15:11:00,
2014-01-22 10:13:00,9.4,5.0,30.17,South,184,7.0,9.0,82,0.00,,,0.00,Wunderground v.1.15,2014-01-22 15:13:00,
2014-01-22 10:15:00,9.4,4.7,30.18,SSE,153,7.0,9.0,81,0.00,,,0.00,Wunderground v.1.15,2014-01-22 15:15:00,
2014-01-22 10:18:00,9.5,5.1,30.18,SSE,153,6.0,9.0,82,0.00,,,0.00,Wunderground v.1.15,2014-01-22 15:18:00,
2014-01-22 10:21:00,9.6,5.2,30.18,SE,145,7.0,9.0,82,0.00,,,0.00,Wunderground v.1.15,2014-01-22 15:21:00,
2014-01-22 10:23:00,9.6,5.2,30.18,South,182,6.0,9.0,82,0.00,,,0.00,Wunderground v.1.15,2014-01-22 15:23:00,
2014-01-22 10:25:00,9.6,4.9,30.18,SSE,160,6.0,9.0,81,0.00,,,0.00,Wunderground v.1.15,2014-01-22 15:25:00,
2014-01-22 10:27:00,9.7,5.0,30.18,SSE,152,6.0,9.0,81,0.00,,,0.00,Wunderground v.1.15,2014-01-22 15:27:00,
2014-01-22 10:29:00,9.7,5.0,30.18,SE,146,6.0,9.0,81,0.00,,,0.00,Wunderground v.1.15,2014-01-22 15:29:00,
2014-01-22 10:31:00,9.8,5.1,30.18,South,172,6.0,9.0,81,0.00,,,0.00,Wunderground v.1.15,2014-01-22 15:31:00,
2014-01-22 10:33:00,9.8,4.9,30.18,South,185,6.0,6.0,80,0.00,,,0.00,Wunderground v.1.15,2014-01-22 15:33:00,
2014-01-22 10:35:00,9.8,4.9,30.18,South,172,6.0,6.0,80,0.00,,,0.00,Wunderground v.1.15,2014-01-22 15:35:00,
2014-01-22 10:38:00,9.9,5.0,30.18,South,183,5.0,8.0,80,0.00,,,0.00,Wunderground v.1.15,2014-01-22 15:38:00,
2014-01-22 10:41:00,9.9,5.0,30.18,South,176,5.0,8.0,80,0.00,,,0.00,Wunderground v.1.15,2014-01-22 15:41:00,
2014-01-22 10:43:00,9.9,5.0,30.18,SSW,196,5.0,5.0,80,0.00,,,0.00,Wunderground v.1.15,2014-01-22 15:43:00,
2014-01-22 10:45:00,10.0,5.1,30.18,South,191,5.0,5.0,80,0.00,,,0.00,Wunderground v.1.15,2014-01-22 15:45:00,
2014-01-22 10:47:00,10.0,5.1,30.18,SSE,168,6.0,6.0,80,0.00,,,0.00,Wunderground v.1.15,2014-01-22 15:47:00,
2014-01-22 10:48:00,10.0,5.1,30.18,SSW,192,6.0,6.0,80,0.00,,,0.00,Wunderground v.1.15,2014-01-22 15:48:00,
2014-01-22 10:51:00,10.1,5.2,30.18,SSE,156,6.0,9.0,80,0.00,,,0.00,Wunderground v.1.15,2014-01-22 15:51:00,
2014-01-22 10:53:00,10.2,5.3,30.18,South,181,6.0,6.0,80,0.00,,,0.00,Wunderground v.1.15,2014-01-22 15:53:00,
2014-01-22 10:58:00,10.4,5.5,30.18,South,172,6.0,7.0,80,0.00,,,0.00,Wunderground v.1.15,2014-01-22 15:58:00,
2014-01-22 11:00:00,10.5,5.5,30.18,South,174,5.0,7.0,80,0.00,,,0.00,Wunderground v.1.15,2014-01-22 16:00:00,
2014-01-22 11:05:00,10.6,5.6,30.17,South,173,5.0,5.0,80,0.00,,,0.00,Wunderground v.1.15,2014-01-22 16:05:00,
2014-01-22 11:07:00,10.6,5.6,30.17,South,187,5.0,5.0,80,0.00,,,0.00,Wunderground v.1.15,2014-01-22 16:07:00,
2014-01-22 11:11:00,10.8,5.8,30.17,South,180,6.0,7.0,80,0.00,,,0.00,Wunderground v.1.15,2014-01-22 16:11:00,
2014-01-22 11:13:00,11.0,6.0,30.17,SSW,193,5.0,5.0,80,0.00,,,0.00,Wunderground v.1.15,2014-01-22 16:13:00,
2014-01-22 11:15:00,11.1,6.1,30.17,South,170,5.0,8.0,80,0.00,,,0.00,Wunderground v.1.15,2014-01-22 16:15:00,
2014-01-22 11:17:00,11.2,6.0,30.17,South,172,5.0,8.0,79,0.00,,,0.00,Wunderground v.1.15,2014-01-22 16:17:00,
2014-01-22 11:19:00,11.3,6.1,30.17,SSW,206,6.0,8.0,79,0.00,,,0.00,Wunderground v.1.15,2014-01-22 16:19:00,
2014-01-22 11:21:00,11.5,6.2,30.17,South,177,6.0,8.0,79,0.00,,,0.00,Wunderground v.1.15,2014-01-22 16:21:00,
2014-01-22 11:23:00,11.6,6.3,30.17,South,186,6.0,7.0,79,0.00,,,0.00,Wunderground v.1.15,2014-01-22 16:23:00,
2014-01-22 11:25:00,11.7,5.9,30.17,SSW,202,6.0,14.0,77,0.00,,,0.00,Wunderground v.1.15,2014-01-22 16:25:00,
2014-01-22 11:29:00,11.7,5.9,30.17,SSW,207,8.0,14.0,77,0.00,,,0.00,Wunderground v.1.15,2014-01-22 16:29:00,
2014-01-22 11:31:00,11.8,5.7,30.17,South,186,9.0,14.0,76,0.00,,,0.00,Wunderground v.1.15,2014-01-22 16:31:00,
2014-01-22 11:33:00,11.9,6.1,30.17,SSE,161,9.0,9.0,77,0.00,,,0.00,Wunderground v.1.15,2014-01-22 16:33:00,
2014-01-22 11:35:00,11.9,5.8,30.16,SSW,204,10.0,13.0,76,0.00,,,0.00,Wunderground v.1.15,2014-01-22 16:35:00,
2014-01-22 11:37:00,11.9,5.8,30.16,SW,220,9.0,13.0,76,0.00,,,0.00,Wunderground v.1.15,2014-01-22 16:37:00,
2014-01-22 11:40:00,12.0,5.9,30.16,South,190,9.0,15.0,76,0.00,,,0.00,Wunderground v.1.15,2014-01-22 16:40:00,
2014-01-22 11:43:00,11.9,6.1,30.16,SSW,213,10.0,14.0,77,0.00,,,0.00,Wunderground v.1.15,2014-01-22 16:43:00,
2014-01-22 11:45:00,12.0,5.9,30.16,SSE,168,9.0,14.0,76,0.00,,,0.00,Wunderground v.1.15,2014-01-22 16:45:00,
2014-01-22 11:47:00,12.0,6.2,30.16,SSE,160,9.0,14.0,77,0.00,,,0.00,Wunderground v.1.15,2014-01-22 16:47:00,
2014-01-22 11:49:00,12.1,6.3,30.16,SSE,154,8.0,14.0,77,0.00,,,0.00,Wunderground v.1.15,2014-01-22 16:49:00,
2014-01-22 11:50:00,12.1,6.3,30.16,South,185,8.0,14.0,77,0.00,,,0.00,Wunderground v.1.15,2014-01-22 16:50:00,
2014-01-22 11:53:00,12.1,6.3,30.16,South,170,8.0,8.0,77,0.00,,,0.00,Wunderground v.1.15,2014-01-22 16:53:00,
2014-01-22 11:55:00,12.1,6.3,30.15,South,174,7.0,10.0,77,0.00,,,0.00,Wunderground v.1.15,2014-01-22 16:55:00,
2014-01-22 11:57:00,12.1,6.3,30.16,SSW,201,7.0,10.0,77,0.00,,,0.00,Wunderground v.1.15,2014-01-22 16:57:00,
2014-01-22 11:59:00,12.2,6.4,30.16,South,185,8.0,10.0,77,0.00,,,0.00,Wunderground v.1.15,2014-01-22 16:59:00,
2014-01-22 12:05:00,12.2,6.4,30.15,South,190,7.0,9.0,77,0.00,,,0.00,Wunderground v.1.15,2014-01-22 17:05:00,
2014-01-22 12:07:00,12.2,6.4,30.15,SSW,213,7.0,9.0,77,0.00,,,0.00,Wunderground v.1.15,2014-01-22 17:07:00,
2014-01-22 12:09:00,12.2,6.4,30.15,SSW,205,7.0,9.0,77,0.00,,,0.00,Wunderground v.1.15,2014-01-22 17:09:00,
2014-01-22 12:15:00,12.5,6.7,30.15,SSE,161,8.0,8.0,77,0.00,,,0.00,Wunderground v.1.15,2014-01-22 17:15:00,
2014-01-22 12:17:00,12.5,6.7,30.15,SSW,210,8.0,8.0,77,0.00,,,0.00,Wunderground v.1.15,2014-01-22 17:17:00,
2014-01-22 12:22:00,12.8,7.2,30.15,SSW,210,7.0,7.0,78,0.00,,,0.00,Wunderground v.1.15,2014-01-22 17:22:00,
2014-01-22 12:27:00,12.9,7.3,30.14,SW,222,6.0,8.0,78,0.00,,,0.00,Wunderground v.1.15,2014-01-22 17:27:00,
2014-01-22 12:29:00,12.9,7.3,30.14,South,172,7.0,8.0,78,0.00,,,0.00,Wunderground v.1.15,2014-01-22 17:29:00,
2014-01-22 12:31:00,13.0,7.4,30.14,South,185,7.0,8.0,78,0.00,,,0.00,Wunderground v.1.15,2014-01-22 17:31:00,
2014-01-22 12:37:00,13.2,7.6,30.13,SSW,194,6.0,7.0,78,0.00,,,0.00,Wunderground v.1.15,2014-01-22 17:37:00,
2014-01-22 12:41:00,13.3,7.7,30.12,SSW,210,5.0,8.0,78,0.00,,,0.00,Wunderground v.1.15,2014-01-22 17:41:00,
2014-01-22 12:43:00,13.2,7.3,30.12,SW,221,6.0,9.0,77,0.00,,,0.00,Wunderground v.1.15,2014-01-22 17:43:00,
2014-01-22 12:45:00,13.3,7.7,30.12,SSW,208,6.0,9.0,78,0.00,,,0.00,Wunderground v.1.15,2014-01-22 17:45:00,
2014-01-22 12:47:00,13.4,7.8,30.12,SSE,166,6.0,9.0,78,0.00,,,0.00,Wunderground v.1.15,2014-01-22 17:47:00,
2014-01-22 12:49:00,13.3,7.4,30.12,South,170,6.0,9.0,77,0.00,,,0.00,Wunderground v.1.15,2014-01-22 17:49:00,
2014-01-22 12:51:00,13.4,7.8,30.11,SSW,204,6.0,9.0,78,0.00,,,0.00,Wunderground v.1.15,2014-01-22 17:51:00,
2014-01-22 12:52:00,13.4,7.8,30.11,SSE,160,6.0,6.0,78,0.00,,,0.00,Wunderground v.1.15,2014-01-22 17:52:00,
2014-01-22 12:55:00,13.5,7.9,30.11,South,170,6.0,6.0,78,0.00,,,0.00,Wunderground v.1.15,2014-01-22 17:55:00,
2014-01-22 12:59:00,13.6,8.0,30.10,SW,218,7.0,14.0,78,0.00,,,0.00,Wunderground v.1.15,2014-01-22 17:59:00,
2014-01-22 13:02:00,13.7,7.8,30.10,SSW,199,9.0,13.0,77,0.00,,,0.00,Wunderground v.1.15,2014-01-22 18:02:00,
2014-01-22 13:07:00,13.9,8.3,30.10,South,188,10.0,13.0,78,0.00,,,0.00,Wunderground v.1.15,2014-01-22 18:07:00,
2014-01-22 13:09:00,14.0,8.4,30.10,South,190,9.0,13.0,78,0.00,,,0.00,Wunderground v.1.15,2014-01-22 18:09:00,
2014-01-22 13:11:00,14.1,8.5,30.10,SSE,149,7.0,13.0,78,0.00,,,0.00,Wunderground v.1.15,2014-01-22 18:11:00,
2014-01-22 13:17:00,14.2,8.3,30.10,South,181,6.0,7.0,77,0.00,,,0.00,Wunderground v.1.15,2014-01-22 18:17:00,
2014-01-22 13:21:00,14.3,8.4,30.09,South,187,7.0,12.0,77,0.00,,,0.00,Wunderground v.1.15,2014-01-22 18:21:00,
2014-01-22 13:22:00,14.3,8.4,30.09,SSW,201,7.0,13.0,77,0.00,,,0.00,Wunderground v.1.15,2014-01-22 18:22:00,
2014-01-22 13:25:00,14.3,8.4,30.09,SSW,207,8.0,13.0,77,0.00,,,0.00,Wunderground v.1.15,2014-01-22 18:25:00,
2014-01-22 13:27:00,14.3,8.4,30.09,SSW,199,9.0,13.0,77,0.00,,,0.00,Wunderground v.1.15,2014-01-22 18:27:00,
2014-01-22 13:29:00,14.4,8.5,30.09,SSW,193,9.0,13.0,77,0.00,,,0.00,Wunderground v.1.15,2014-01-22 18:29:00,
2014-01-22 13:31:00,14.4,8.5,30.09,South,187,9.0,13.0,77,0.00,,,0.00,Wunderground v.1.15,2014-01-22 18:31:00,
2014-01-22 13:35:00,14.6,8.7,30.09,South,189,7.0,8.0,77,0.00,,,0.00,Wunderground v.1.15,2014-01-22 18:35:00,
2014-01-22 13:37:00,14.8,8.9,30.09,SW,217,6.0,11.0,77,0.00,,,0.00,Wunderground v.1.15,2014-01-22 18:37:00,
2014-01-22 13:41:00,14.9,8.7,30.09,South,190,6.0,11.0,76,0.00,,,0.00,Wunderground v.1.15,2014-01-22 18:41:00,
2014-01-22 13:45:00,14.9,8.7,30.09,South,186,7.0,7.0,76,0.00,,,0.00,Wunderground v.1.15,2014-01-22 18:45:00,
2014-01-22 13:47:00,14.9,8.7,30.08,South,187,7.0,7.0,76,0.00,,,0.00,Wunderground v.1.15,2014-01-22 18:47:00,
2014-01-22 13:49:00,15.0,8.8,30.09,SW,222,7.0,9.0,76,0.00,,,0.00,Wunderground v.1.15,2014-01-22 18:49:00,
2014-01-22 13:53:00,15.2,9.0,30.08,SSW,196,7.0,7.0,76,0.00,,,0.00,Wunderground v.1.15,2014-01-22 18:53:00,
2014-01-22 13:54:00,15.3,9.1,30.08,SSW,213,7.0,7.0,76,0.00,,,0.00,Wunderground v.1.15,2014-01-22 18:54:00,
2014-01-22 13:57:00,15.4,8.9,30.08,South,185,7.0,11.0,75,0.00,,,0.00,Wunderground v.1.15,2014-01-22 18:57:00,
2014-01-22 13:59:00,15.4,8.9,30.09,SSW,208,7.0,11.0,75,0.00,,,0.00,Wunderground v.1.15,2014-01-22 18:59:00,
2014-01-22 14:03:00,15.7,9.2,30.08,South,180,7.0,7.0,75,0.00,,,0.00,Wunderground v.1.15,2014-01-22 19:03:00,
2014-01-22 14:04:00,15.7,9.2,30.08,SW,218,8.0,8.0,75,0.00,,,0.00,Wunderground v.1.15,2014-01-22 19:04:00,
2014-01-22 14:09:00,15.8,9.0,30.08,South,181,8.0,10.0,74,0.00,,,0.00,Wunderground v.1.15,2014-01-22 19:09:00,
2014-01-22 14:11:00,15.8,9.0,30.08,SW,214,9.0,10.0,74,0.00,,,0.00,Wunderground v.1.15,2014-01-22 19:11:00,
2014-01-22 14:13:00,15.8,9.0,30.08,SSW,208,9.0,9.0,74,0.00,,,0.00,Wunderground v.1.15,2014-01-22 19:13:00,
2014-01-22 14:14:00,15.9,9.1,30.08,SW,218,9.0,9.0,74,0.00,,,0.00,Wunderground v.1.15,2014-01-22 19:14:00,
2014-01-22 14:19:00,16.0,9.2,30.08,SW,216,8.0,9.0,74,0.00,,,0.00,Wunderground v.1.15,2014-01-22 19:19:00,
2014-01-22 14:23:00,16.1,9.3,30.08,SW,229,7.0,7.0,74,0.00,,,0.00,Wunderground v.1.15,2014-01-22 19:23:00,
2014-01-22 14:24:00,16.2,9.7,30.08,WSW,239,7.0,16.0,75,0.00,,,0.00,Wunderground v.1.15,2014-01-22 19:24:00,
2014-01-22 14:26:00,16.1,9.6,30.08,SW,233,8.0,16.0,75,0.00,,,0.00,Wunderground v.1.15,2014-01-22 19:26:00,
2014-01-22 14:31:00,16.1,9.9,30.08,SSW,196,10.0,16.0,76,0.00,,,0.00,Wunderground v.1.15,2014-01-22 19:31:00,
2014-01-22 14:33:00,16.0,9.5,30.08,SW,220,10.0,10.0,75,0.00,,,0.00,Wunderground v.1.15,2014-01-22 19:33:00,
2014-01-22 14:34:00,16.0,9.8,30.07,SW,231,11.0,11.0,76,0.00,,,0.00,Wunderground v.1.15,2014-01-22 19:34:00,
2014-01-22 14:36:00,16.0,9.8,30.07,SW,224,10.0,11.0,76,0.00,,,0.00,Wunderground v.1.15,2014-01-22 19:36:00,
2014-01-22 14:39:00,16.0,9.8,30.07,SW,220,10.0,13.0,76,0.00,,,0.00,Wunderground v.1.15,2014-01-22 19:39:00,
2014-01-22 14:43:00,15.9,10.0,30.07,WSW,237,11.0,11.0,77,0.00,,,0.00,Wunderground v.1.15,2014-01-22 19:43:00,
2014-01-22 14:45:00,16.0,10.1,30.07,SSW,199,10.0,11.0,77,0.00,,,0.00,Wunderground v.1.15,2014-01-22 19:45:00,
2014-01-22 14:46:00,16.1,10.2,30.06,SSW,208,10.0,11.0,77,0.00,,,0.00,Wunderground v.1.15,2014-01-22 19:46:00,
2014-01-22 14:49:00,16.1,10.2,30.06,SW,214,9.0,11.0,77,0.00,,,0.00,Wunderground v.1.15,2014-01-22 19:49:00,
2014-01-22 14:53:00,16.0,10.1,30.07,SSW,200,9.0,9.0,77,0.00,,,0.00,Wunderground v.1.15,2014-01-22 19:53:00,
2014-01-22 14:55:00,16.1,10.4,30.07,SW,233,9.0,9.0,78,0.00,,,0.00,Wunderground v.1.15,2014-01-22 19:55:00,
2014-01-22 14:57:00,16.2,10.5,30.07,SSW,207,9.0,9.0,78,0.00,,,0.00,Wunderground v.1.15,2014-01-22 19:57:00,
2014-01-22 14:59:00,16.2,10.5,30.07,SSW,204,9.0,12.0,78,0.00,,,0.00,Wunderground v.1.15,2014-01-22 19:59:00,
2014-01-22 15:03:00,16.3,10.9,30.07,SSW,210,8.0,8.0,79,0.00,,,0.00,Wunderground v.1.15,2014-01-22 20:03:00,
2014-01-22 15:05:00,16.3,10.9,30.06,South,181,8.0,8.0,79,0.00,,,0.00,Wunderground v.1.15,2014-01-22 20:05:00,
2014-01-22 15:06:00,16.4,11.0,30.07,SW,226,8.0,13.0,79,0.00,,,0.00,Wunderground v.1.15,2014-01-22 20:06:00,
2014-01-22 15:09:00,16.4,11.0,30.07,SSW,207,9.0,13.0,79,0.00,,,0.00,Wunderground v.1.15,2014-01-22 20:09:00,
2014-01-22 15:11:00,16.4,11.0,30.07,SSW,206,8.0,13.0,79,0.00,,,0.00,Wunderground v.1.15,2014-01-22 20:11:00,
2014-01-22 15:13:00,16.5,11.1,30.07,SSW,195,8.0,8.0,79,0.00,,,0.00,Wunderground v.1.15,2014-01-22 20:13:00,
2014-01-22 15:15:00,16.5,11.1,30.07,SW,219,8.0,9.0,79,0.00,,,0.00,Wunderground v.1.15,2014-01-22 20:15:00,
2014-01-22 15:16:00,16.5,10.8,30.07,SW,230,9.0,12.0,78,0.00,,,0.00,Wunderground v.1.15,2014-01-22 20:16:00,
2014-01-22 15:21:00,16.4,11.0,30.07,SW,214,9.0,12.0,79,0.00,,,0.00,Wunderground v.1.15,2014-01-22 20:21:00,
2014-01-22 15:23:00,16.5,11.1,30.07,SSW,210,9.0,9.0,79,0.00,,,0.00,Wunderground v.1.15,2014-01-22 20:23:00,
2014-01-22 15:25:00,16.4,11.0,30.07,SW,220,9.0,12.0,79,0.00,,,0.00,Wunderground v.1.15,2014-01-22 20:25:00,
2014-01-22 15:26:00,16.5,11.1,30.07,SW,216,9.0,14.0,79,0.00,,,0.00,Wunderground v.1.15,2014-01-22 20:26:00,
2014-01-22 15:28:00,16.4,11.0,30.07,SW,225,9.0,14.0,79,0.00,,,0.00,Wunderground v.1.15,2014-01-22 20:28:00,
2014-01-22 15:31:00,16.5,11.4,30.07,SSW,192,9.0,14.0,80,0.00,,,0.00,Wunderground v.1.15,2014-01-22 20:31:00,
2014-01-22 15:33:00,16.5,11.4,30.07,SW,220,9.0,13.0,80,0.00,,,0.00,Wunderground v.1.15,2014-01-22 20:33:00,
2014-01-22 15:37:00,16.5,11.4,30.07,SW,232,9.0,13.0,80,0.00,,,0.00,Wunderground v.1.15,2014-01-22 20:37:00,
2014-01-22 15:41:00,16.6,11.5,30.07,SSW,201,9.0,13.0,80,0.00,,,0.00,Wunderground v.1.15,2014-01-22 20:41:00,
2014-01-22 15:43:00,16.6,11.5,30.07,SW,233,8.0,13.0,80,0.00,,,0.00,Wunderground v.1.15,2014-01-22 20:43:00,
2014-01-22 15:45:00,16.6,11.5,30.08,SW,228,8.0,13.0,80,0.00,,,0.00,Wunderground v.1.15,2014-01-22 20:45:00,
2014-01-22 15:46:00,16.6,11.5,30.07,SW,224,9.0,13.0,80,0.00,,,0.00,Wunderground v.1.15,2014-01-22 20:46:00,
2014-01-22 15:53:00,16.8,11.7,30.07,SSW,206,10.0,10.0,80,0.00,,,0.00,Wunderground v.1.15,2014-01-22 20:53:00,
2014-01-22 15:55:00,16.7,11.6,30.07,South,191,10.0,10.0,80,0.00,,,0.00,Wunderground v.1.15,2014-01-22 20:55:00,
2014-01-22 15:59:00,16.8,12.0,30.07,SW,226,9.0,11.0,81,0.00,,,0.00,Wunderground v.1.15,2014-01-22 20:59:00,
2014-01-22 16:01:00,16.8,12.0,30.07,SSW,201,10.0,11.0,81,0.00,,,0.00,Wunderground v.1.15,2014-01-22 21:01:00,
2014-01-22 16:05:00,16.8,12.0,30.07,SSW,202,9.0,10.0,81,0.00,,,0.00,Wunderground v.1.15,2014-01-22 21:05:00,
2014-01-22 16:06:00,16.9,12.1,30.07,SW,220,9.0,10.0,81,0.00,,,0.00,Wunderground v.1.15,2014-01-22 21:06:00,
2014-01-22 16:09:00,16.9,12.1,30.07,SSW,210,8.0,10.0,81,0.00,,,0.00,Wunderground v.1.15,2014-01-22 21:09:00,
2014-01-22 16:13:00,16.9,12.1,30.07,SSW,210,9.0,10.0,81,0.00,,,0.00,Wunderground v.1.15,2014-01-22 21:13:00,
2014-01-22 16:15:00,16.9,12.1,30.07,WSW,243,9.0,10.0,81,0.00,,,0.00,Wunderground v.1.15,2014-01-22 21:15:00,
2014-01-22 16:16:00,17.0,12.5,30.08,SW,231,9.0,10.0,82,0.00,,,0.00,Wunderground v.1.15,2014-01-22 21:16:00,
2014-01-22 16:19:00,17.0,12.5,30.08,SW,224,9.0,10.0,82,0.00,,,0.00,Wunderground v.1.15,2014-01-22 21:19:00,
2014-01-22 16:21:00,17.0,12.2,30.08,SSW,193,9.0,10.0,81,0.00,,,0.00,Wunderground v.1.15,2014-01-22 21:21:00,
2014-01-22 16:23:00,17.1,12.6,30.07,SW,232,8.0,8.0,82,0.00,,,0.00,Wunderground v.1.15,2014-01-22 21:23:00,
2014-01-22 16:26:00,17.1,12.6,30.07,South,189,8.0,12.0,82,0.00,,,0.00,Wunderground v.1.15,2014-01-22 21:26:00,
2014-01-22 16:29:00,17.1,12.6,30.07,SW,223,8.0,12.0,82,0.00,,,0.00,Wunderground v.1.15,2014-01-22 21:29:00,
2014-01-22 16:31:00,17.2,12.6,30.07,SW,221,8.0,12.0,82,0.00,,,0.00,Wunderground v.1.15,2014-01-22 21:31:00,
2014-01-22 16:33:00,17.2,12.6,30.07,SSW,193,7.0,7.0,82,0.00,,,0.00,Wunderground v.1.15,2014-01-22 21:33:00,
2014-01-22 16:39:00,17.2,12.6,30.07,SSW,204,7.0,12.0,82,0.00,,,0.00,Wunderground v.1.15,2014-01-22 21:39:00,
2014-01-22 16:41:00,17.2,12.6,30.07,SSW,207,7.0,12.0,82,0.00,,,0.00,Wunderground v.1.15,2014-01-22 21:41:00,
2014-01-22 16:43:00,17.2,12.6,30.07,SSW,210,7.0,7.0,82,0.00,,,0.00,Wunderground v.1.15,2014-01-22 21:43:00,
2014-01-22 16:45:00,17.3,12.7,30.07,SSW,203,7.0,7.0,82,0.00,,,0.00,Wunderground v.1.15,2014-01-22 21:45:00,
2014-01-22 16:49:00,17.3,12.7,30.07,SW,216,7.0,12.0,82,0.00,,,0.00,Wunderground v.1.15,2014-01-22 21:49:00,
2014-01-22 16:53:00,17.3,12.7,30.06,SW,229,7.0,11.0,82,0.00,,,0.00,Wunderground v.1.15,2014-01-22 21:53:00,
2014-01-22 16:55:00,17.4,12.8,30.06,SSW,198,7.0,11.0,82,0.00,,,0.00,Wunderground v.1.15,2014-01-22 21:55:00,
2014-01-22 16:58:00,17.5,12.9,30.07,SSW,204,6.0,11.0,82,0.00,,,0.00,Wunderground v.1.15,2014-01-22 21:58:00,
2014-01-22 17:01:00,17.5,12.9,30.08,WNW,288,6.0,11.0,82,0.00,,,0.00,Wunderground v.1.15,2014-01-22 22:01:00,
2014-01-22 17:09:00,17.6,13.0,30.08,SW,219,6.0,11.0,82,0.00,,,0.00,Wunderground v.1.15,2014-01-22 22:09:00,
2014-01-22 17:11:00,17.7,13.1,30.08,SW,221,7.0,11.0,82,0.00,,,0.00,Wunderground v.1.15,2014-01-22 22:11:00,
2014-01-22 17:12:00,17.6,13.0,30.08,SW,221,8.0,8.0,82,0.00,,,0.00,Wunderground v.1.15,2014-01-22 22:12:00,
2014-01-22 17:15:00,17.6,13.0,30.08,SSW,193,8.0,8.0,82,0.00,,,0.00,Wunderground v.1.15,2014-01-22 22:15:00,
2014-01-22 17:17:00,17.6,13.0,30.08,SW,220,8.0,11.0,82,0.00,,,0.00,Wunderground v.1.15,2014-01-22 22:17:00,
2014-01-22 17:19:00,17.6,13.0,30.08,SSW,206,7.0,11.0,82,0.00,,,0.00,Wunderground v.1.15,2014-01-22 22:19:00,
2014-01-22 17:21:00,17.6,13.0,30.08,SSW,210,7.0,11.0,82,0.00,,,0.00,Wunderground v.1.15,2014-01-22 22:21:00,
2014-01-22 17:22:00,17.6,13.0,30.08,SSW,208,7.0,7.0,82,0.00,,,0.00,Wunderground v.1.15,2014-01-22 22:22:00,
2014-01-22 17:25:00,17.7,13.1,30.08,SSW,212,6.0,7.0,82,0.00,,,0.00,Wunderground v.1.15,2014-01-22 22:25:00,
2014-01-22 17:31:00,17.7,13.1,30.09,SW,235,7.0,10.0,82,0.00,,,0.00,Wunderground v.1.15,2014-01-22 22:31:00,
2014-01-22 17:34:00,17.7,13.4,30.09,SW,219,6.0,7.0,83,0.00,,,0.00,Wunderground v.1.15,2014-01-22 22:34:00,
2014-01-22 17:37:00,17.7,13.4,30.09,SW,231,6.0,7.0,83,0.00,,,0.00,Wunderground v.1.15,2014-01-22 22:37:00,
2014-01-22 17:39:00,17.7,13.4,30.09,SW,235,5.0,7.0,83,0.00,,,0.00,Wunderground v.1.15,2014-01-22 22:39:00,
2014-01-22 17:41:00,17.7,13.4,30.09,SW,222,5.0,7.0,83,0.00,,,0.00,Wunderground v.1.15,2014-01-22 22:41:00,
2014-01-22 17:47:00,17.8,13.5,30.09,SW,227,5.0,8.0,83,0.00,,,0.00,Wunderground v.1.15,2014-01-22 22:47:00,
2014-01-22 17:49:00,17.8,13.5,30.10,South,191,5.0,8.0,83,0.00,,,0.00,Wunderground v.1.15,2014-01-22 22:49:00,
2014-01-22 17:51:00,17.8,13.5,30.10,SW,223,6.0,8.0,83,0.00,,,0.00,Wunderground v.1.15,2014-01-22 22:51:00,
2014-01-22 17:54:00,17.9,13.6,30.10,WSW,247,6.0,8.0,83,0.00,,,0.00,Wunderground v.1.15,2014-01-22 22:54:00,
2014-01-22 17:57:00,17.9,13.9,30.10,SW,220,6.0,8.0,84,0.00,,,0.00,Wunderground v.1.15,2014-01-22 22:57:00,
2014-01-22 18:01:00,17.9,13.9,30.10,WSW,243,6.0,8.0,84,0.00,,,0.00,Wunderground v.1.15,2014-01-22 23:01:00,
2014-01-22 18:03:00,17.9,13.9,30.10,SW,224,6.0,6.0,84,0.00,,,0.00,Wunderground v.1.15,2014-01-22 23:03:00,
2014-01-22 18:04:00,18.0,14.0,30.10,SSW,212,6.0,6.0,84,0.00,,,0.00,Wunderground v.1.15,2014-01-22 23:04:00,
2014-01-22 18:07:00,18.0,14.0,30.10,WSW,241,6.0,9.0,84,0.00,,,0.00,Wunderground v.1.15,2014-01-22 23:07:00,
2014-01-22 18:09:00,18.0,14.3,30.10,WSW,237,6.0,9.0,85,0.00,,,0.00,Wunderground v.1.15,2014-01-22 23:09:00,
2014-01-22 18:11:00,18.0,14.3,30.10,WSW,246,6.0,9.0,85,0.00,,,0.00,Wunderground v.1.15,2014-01-22 23:11:00,
2014-01-22 18:13:00,18.0,14.3,30.10,SW,236,6.0,9.0,85,0.00,,,0.00,Wunderground v.1.15,2014-01-22 23:13:00,
2014-01-22 18:15:00,18.0,14.3,30.10,SSW,206,6.0,9.0,85,0.00,,,0.00,Wunderground v.1.15,2014-01-22 23:15:00,
2014-01-22 18:21:00,18.0,14.5,30.10,SW,220,6.0,9.0,86,0.00,,,0.00,Wunderground v.1.15,2014-01-22 23:21:00,
2014-01-22 18:23:00,18.0,14.5,30.10,SSW,203,6.0,6.0,86,0.00,,,0.00,Wunderground v.1.15,2014-01-22 23:23:00,
2014-01-22 18:25:00,18.1,14.6,30.10,SSW,202,6.0,9.0,86,0.00,,,0.00,Wunderground v.1.15,2014-01-22 23:25:00,
2014-01-22 18:29:00,18.1,14.6,30.10,SW,228,6.0,9.0,86,0.00,,,0.00,Wunderground v.1.15,2014-01-22 23:29:00,
2014-01-22 18:31:00,18.1,14.6,30.10,SSW,210,6.0,9.0,86,0.00,,,0.00,Wunderground v.1.15,2014-01-22 23:31:00,
2014-01-22 18:33:00,18.1,14.6,30.10,SW,221,6.0,6.0,86,0.00,,,0.00,Wunderground v.1.15,2014-01-22 23:33:00,
2014-01-22 18:35:00,18.1,14.9,30.11,SW,222,6.0,8.0,87,0.00,,,0.00,Wunderground v.1.15,2014-01-22 23:35:00,
2014-01-22 18:37:00,18.1,14.9,30.10,SSW,208,6.0,8.0,87,0.00,,,0.00,Wunderground v.1.15,2014-01-22 23:37:00,
2014-01-22 18:39:00,18.1,14.9,30.11,SW,226,6.0,8.0,87,0.00,,,0.00,Wunderground v.1.15,2014-01-22 23:39:00,
2014-01-22 18:43:00,18.1,14.9,30.11,SW,228,6.0,6.0,87,0.00,,,0.00,Wunderground v.1.15,2014-01-22 23:43:00,
2014-01-22 18:49:00,18.1,14.9,30.10,SSW,203,6.0,8.0,87,0.00,,,0.00,Wunderground v.1.15,2014-01-22 23:49:00,
2014-01-22 18:51:00,18.1,14.9,30.10,South,191,6.0,8.0,87,0.00,,,0.00,Wunderground v.1.15,2014-01-22 23:51:00,
2014-01-22 18:53:00,18.1,14.9,30.10,South,170,6.0,6.0,87,0.00,,,0.00,Wunderground v.1.15,2014-01-22 23:53:00,
2014-01-22 18:54:00,18.1,14.9,30.10,South,191,5.0,7.0,87,0.00,,,0.00,Wunderground v.1.15,2014-01-22 23:54:00,
2014-01-22 18:56:00,18.1,14.9,30.10,SSW,213,6.0,7.0,87,0.00,,,0.00,Wunderground v.1.15,2014-01-22 23:56:00,
2014-01-22 18:59:00,18.1,14.9,30.10,South,186,5.0,7.0,87,0.00,,,0.00,Wunderground v.1.15,2014-01-22 23:59:00,
2014-01-22 19:01:00,18.1,14.9,30.10,SSW,195,5.0,7.0,87,0.00,,,0.00,Wunderground v.1.15,2014-01-23 00:01:00,
2014-01-22 19:03:00,18.1,14.9,30.10,SSW,207,6.0,6.0,87,0.00,,,0.00,Wunderground v.1.15,2014-01-23 00:03:00,
2014-01-22 19:05:00,18.2,15.0,30.10,SSW,210,6.0,7.0,87,0.00,,,0.00,Wunderground v.1.15,2014-01-23 00:05:00,
2014-01-22 19:06:00,18.2,15.0,30.10,SW,216,6.0,8.0,87,0.00,,,0.00,Wunderground v.1.15,2014-01-23 00:06:00,
2014-01-22 19:09:00,18.2,15.0,30.10,SSW,192,6.0,8.0,87,0.00,,,0.00,Wunderground v.1.15,2014-01-23 00:09:00,
2014-01-22 19:13:00,18.2,15.0,30.10,SW,222,6.0,6.0,87,0.00,,,0.00,Wunderground v.1.15,2014-01-23 00:13:00,
2014-01-22 19:15:00,18.2,14.7,30.11,SW,226,6.0,6.0,86,0.00,,,0.00,Wunderground v.1.15,2014-01-23 00:15:00,
2014-01-22 19:19:00,18.3,15.1,30.10,SSW,195,6.0,10.0,87,0.00,,,0.00,Wunderground v.1.15,2014-01-23 00:19:00,
2014-01-22 19:21:00,18.4,15.2,30.10,SW,236,6.0,10.0,87,0.00,,,0.00,Wunderground v.1.15,2014-01-23 00:21:00,
2014-01-22 19:25:00,18.4,14.9,30.11,SW,222,6.0,6.0,86,0.00,,,0.00,Wunderground v.1.15,2014-01-23 00:25:00,
2014-01-22 19:31:00,18.6,15.4,30.11,SW,228,7.0,11.0,87,0.00,,,0.00,Wunderground v.1.15,2014-01-23 00:31:00,
2014-01-22 19:33:00,18.6,15.4,30.11,SSW,212,7.0,7.0,87,0.00,,,0.00,Wunderground v.1.15,2014-01-23 00:33:00,
2014-01-22 19:35:00,18.7,15.5,30.11,SSW,209,8.0,8.0,87,0.00,,,0.00,Wunderground v.1.15,2014-01-23 00:35:00,
2014-01-22 19:39:00,18.7,15.5,30.11,SW,220,8.0,12.0,87,0.00,,,0.00,Wunderground v.1.15,2014-01-23 00:39:00,
2014-01-22 19:43:00,18.8,15.6,30.11,WSW,248,7.0,11.0,87,0.00,,,0.00,Wunderground v.1.15,2014-01-23 00:43:00,
2014-01-22 19:45:00,18.8,15.6,30.11,WSW,237,8.0,12.0,87,0.00,,,0.00,Wunderground v.1.15,2014-01-23 00:45:00,
2014-01-22 19:46:00,18.9,15.7,30.11,SW,233,8.0,12.0,87,0.00,,,0.00,Wunderground v.1.15,2014-01-23 00:46:00,
2014-01-22 19:49:00,19.0,16.0,30.11,South,190,9.0,12.0,88,0.00,,,0.00,Wunderground v.1.15,2014-01-23 00:49:00,
2014-01-22 19:51:00,19.0,16.0,30.11,WSW,244,9.0,12.0,88,0.00,,,0.00,Wunderground v.1.15,2014-01-23 00:51:00,
2014-01-22 19:53:00,19.0,16.0,30.11,SW,226,9.0,10.0,88,0.00,,,0.00,Wunderground v.1.15,2014-01-23 00:53:00,
2014-01-22 21:19:00,19.4,16.7,30.13,WNW,293,14.0,16.0,89,0.00,,,0.00,Wunderground v.1.15,2014-01-23 02:19:00,
2014-01-22 21:25:00,19.1,16.4,30.15,NNW,332,14.0,18.0,89,0.00,,,0.00,Wunderground v.1.15,2014-01-23 02:25:00,
2014-01-22 21:27:00,18.3,15.3,30.15,WNW,287,16.0,22.0,88,0.00,,,0.00,Wunderground v.1.15,2014-01-23 02:27:00,
2014-01-22 21:29:00,17.6,14.7,30.15,NW,313,19.0,25.0,88,0.00,,,0.00,Wunderground v.1.15,2014-01-23 02:29:00,
2014-01-22 21:30:00,17.2,14.3,30.16,NW,305,21.0,25.0,88,0.00,,,0.00,Wunderground v.1.15,2014-01-23 02:30:00,
2014-01-22 21:35:00,16.8,13.6,30.16,WNW,297,23.0,23.0,87,0.00,,,0.00,Wunderground v.1.15,2014-01-23 02:35:00,
2014-01-22 21:39:00,16.6,12.3,30.16,NW,317,21.0,23.0,83,0.00,,,0.00,Wunderground v.1.15,2014-01-23 02:39:00,
2014-01-22 21:40:00,16.6,12.3,30.17,WNW,302,20.0,23.0,83,0.00,,,0.00,Wunderground v.1.15,2014-01-23 02:40:00,
2014-01-22 21:43:00,16.5,12.0,30.17,WNW,303,19.0,19.0,82,0.00,,,0.00,Wunderground v.1.15,2014-01-23 02:43:00,
2014-01-22 21:45:00,16.5,11.4,30.17,NW,324,19.0,19.0,80,0.00,,,0.00,Wunderground v.1.15,2014-01-23 02:45:00,
2014-01-22 21:47:00,16.6,10.9,30.17,NNW,328,18.0,19.0,78,0.00,,,0.00,Wunderground v.1.15,2014-01-23 02:47:00,
2014-01-22 21:49:00,16.6,10.9,30.17,NW,322,17.0,22.0,78,0.00,,,0.00,Wunderground v.1.15,2014-01-23 02:49:00,
2014-01-22 21:52:00,16.7,9.5,30.17,NW,312,17.0,17.0,73,0.00,,,0.00,Wunderground v.1.15,2014-01-23 02:52:00,
2014-01-22 21:55:00,16.6,9.1,30.17,NW,305,15.0,17.0,72,0.00,,,0.00,Wunderground v.1.15,2014-01-23 02:55:00,
2014-01-22 21:57:00,16.6,8.8,30.17,NNW,328,15.0,20.0,71,0.00,,,0.00,Wunderground v.1.15,2014-01-23 02:57:00,
2014-01-22 22:00:00,16.6,7.9,30.17,NW,309,15.0,26.0,68,0.00,,,0.00,Wunderground v.1.15,2014-01-23 03:00:00,
2014-01-22 22:02:00,16.6,7.2,30.17,NW,316,15.0,19.0,66,0.00,,,0.00,Wunderground v.1.15,2014-01-23 03:02:00,
2014-01-22 22:07:00,16.4,7.0,30.17,NW,305,15.0,19.0,66,0.00,,,0.00,Wunderground v.1.15,2014-01-23 03:07:00,
2014-01-22 22:11:00,16.3,6.6,30.17,WNW,299,17.0,26.0,65,0.00,,,0.00,Wunderground v.1.15,2014-01-23 03:11:00,
2014-01-22 22:12:00,16.3,6.2,30.18,NW,314,18.0,22.0,64,0.00,,,0.00,Wunderground v.1.15,2014-01-23 03:12:00,
2014-01-22 22:15:00,16.2,6.1,30.18,NW,318,19.0,22.0,64,0.00,,,0.00,Wunderground v.1.15,2014-01-23 03:15:00,
2014-01-22 22:17:00,16.1,6.4,30.18,WNW,299,20.0,22.0,65,0.00,,,0.00,Wunderground v.1.15,2014-01-23 03:17:00,
2014-01-22 22:19:00,15.9,6.2,30.18,NW,312,21.0,22.0,65,0.00,,,0.00,Wunderground v.1.15,2014-01-23 03:19:00,
2014-01-22 22:21:00,15.8,6.1,30.18,NNW,330,20.0,22.0,65,0.00,,,0.00,Wunderground v.1.15,2014-01-23 03:21:00,
2014-01-22 22:27:00,15.6,5.9,30.19,NW,310,18.0,21.0,65,0.00,,,0.00,Wunderground v.1.15,2014-01-23 03:27:00,
2014-01-22 22:31:00,15.6,5.9,30.19,NW,310,18.0,21.0,65,0.00,,,0.00,Wunderground v.1.15,2014-01-23 03:31:00,
2014-01-22 22:32:00,15.5,6.2,30.19,NW,309,17.0,18.0,66,0.00,,,0.00,Wunderground v.1.15,2014-01-23 03:32:00,
2014-01-22 22:35:00,15.5,6.2,30.19,NW,304,18.0,18.0,66,0.00,,,0.00,Wunderground v.1.15,2014-01-23 03:35:00,
2014-01-22 22:37:00,15.4,6.1,30.19,NW,318,17.0,18.0,66,0.00,,,0.00,Wunderground v.1.15,2014-01-23 03:37:00,
2014-01-22 22:42:00,15.4,6.1,30.19,NW,309,16.0,16.0,66,0.00,,,0.00,Wunderground v.1.15,2014-01-23 03:42:00,
2014-01-22 22:45:00,15.4,6.1,30.19,NW,315,14.0,16.0,66,0.00,,,0.00,Wunderground v.1.15,2014-01-23 03:45:00,
2014-01-22 22:49:00,15.1,6.1,30.19,NNW,329,12.0,16.0,67,0.00,,,0.00,Wunderground v.1.15,2014-01-23 03:49:00,
2014-01-22 22:51:00,15.0,6.0,30.19,NW,322,11.0,16.0,67,0.00,,,0.00,Wunderground v.1.15,2014-01-23 03:51:00,
2014-01-22 22:52:00,15.0,6.3,30.19,NW,310,9.0,11.0,68,0.00,,,0.00,Wunderground v.1.15,2014-01-23 03:52:00,
2014-01-22 22:55:00,15.0,6.3,30.19,NW,310,10.0,18.0,68,0.00,,,0.00,Wunderground v.1.15,2014-01-23 03:55:00,
2014-01-22 22:57:00,15.0,6.3,30.19,WNW,301,11.0,18.0,68,0.00,,,0.00,Wunderground v.1.15,2014-01-23 03:57:00,
2014-01-22 23:01:00,14.9,6.2,30.19,NW,305,13.0,18.0,68,0.00,,,0.00,Wunderground v.1.15,2014-01-23 04:01:00,
2014-01-22 23:02:00,14.9,6.6,30.19,NW,319,14.0,16.0,69,0.00,,,0.00,Wunderground v.1.15,2014-01-23 04:02:00,
2014-01-22 23:07:00,14.9,6.6,30.19,NW,311,12.0,16.0,69,0.00,,,0.00,Wunderground v.1.15,2014-01-23 04:07:00,
2014-01-22 23:09:00,14.8,6.5,30.19,NW,318,12.0,16.0,69,0.00,,,0.00,Wunderground v.1.15,2014-01-23 04:09:00,
2014-01-22 23:11:00,14.8,6.5,30.20,NW,314,12.0,16.0,69,0.00,,,0.00,Wunderground v.1.15,2014-01-23 04:11:00,
2014-01-22 23:14:00,14.7,6.4,30.20,NW,318,12.0,12.0,69,0.00,,,0.00,Wunderground v.1.15,2014-01-23 04:14:00,
2014-01-22 23:17:00,14.6,6.3,30.20,NW,318,12.0,12.0,69,0.00,,,0.00,Wunderground v.1.15,2014-01-23 04:17:00,
2014-01-22 23:21:00,14.5,6.5,30.20,NW,313,11.0,12.0,70,0.00,,,0.00,Wunderground v.1.15,2014-01-23 04:21:00,
2014-01-22 23:23:00,14.4,6.4,30.20,NW,305,11.0,11.0,70,0.00,,,0.00,Wunderground v.1.15,2014-01-23 04:23:00,
2014-01-22 23:27:00,14.3,6.3,30.20,NW,304,11.0,13.0,70,0.00,,,0.00,Wunderground v.1.15,2014-01-23 04:27:00,
2014-01-22 23:29:00,14.2,6.2,30.20,WNW,291,12.0,14.0,70,0.00,,,0.00,Wunderground v.1.15,2014-01-23 04:29:00,
2014-01-22 23:31:00,14.1,6.1,30.20,NW,312,12.0,14.0,70,0.00,,,0.00,Wunderground v.1.15,2014-01-23 04:31:00,
2014-01-22 23:33:00,14.1,6.1,30.20,WNW,303,12.0,12.0,70,0.00,,,0.00,Wunderground v.1.15,2014-01-23 04:33:00,
2014-01-22 23:34:00,14.0,6.0,30.20,NW,322,12.0,12.0,70,0.00,,,0.00,Wunderground v.1.15,2014-01-23 04:34:00,
2014-01-22 23:37:00,14.0,6.0,30.20,NW,323,12.0,12.0,70,0.00,,,0.00,Wunderground v.1.15,2014-01-23 04:37:00,
2014-01-22 23:39:00,13.7,5.7,30.20,NW,308,11.0,12.0,70,0.00,,,0.00,Wunderground v.1.15,2014-01-23 04:39:00,
2014-01-22 23:43:00,13.5,5.8,30.21,NW,306,10.0,10.0,71,0.00,,,0.00,Wunderground v.1.15,2014-01-23 04:43:00,
2014-01-22 23:44:00,13.6,5.9,30.21,WNW,302,10.0,13.0,71,0.00,,,0.00,Wunderground v.1.15,2014-01-23 04:44:00,
2014-01-22 23:49:00,13.5,5.8,30.21,WNW,298,10.0,13.0,71,0.00,,,0.00,Wunderground v.1.15,2014-01-23 04:49:00,
2014-01-22 23:54:00,13.4,5.7,30.21,NW,322,9.0,11.0,71,0.00,,,0.00,Wunderground v.1.15,2014-01-23 04:54:00,
2014-01-22 23:57:00,13.4,6.1,30.21,NW,312,10.0,11.0,72,0.00,,,0.00,Wunderground v.1.15,2014-01-23 04:57:00,
2014-01-22 23:59:00,13.4,6.1,30.21,NW,307,9.0,12.0,72,0.00,,,0.00,Wunderground v.1.15,2014-01-23 04:59:00,